Location: Agadir Mansour Mhndou
(31.2424°N, 8.7730°W)
Time: 05:08:40
(UTC+00:00)

Cosmos 405 Rocket - Pass Details

Date: 16 October 2021
Orbit: 488 x 551 km, 81.3° (Epoch: 28 November)

Event Time Altitude Azimuth Distance (km) Brightness Sun altitude
Rises 18:35:13 0° 16° (NNE) 2,679 6.1 -7.9°
Reaches altitude 10° 18:38:19 10° 44° (NE) 1,798 5.0 -8.5°
Maximum altitude 18:40:22 14° 75° (ENE) 1,579 4.5 -8.9°
Enters shadow 18:41:56 11° 100° (E) 1,717 4.7 -9.3°
